Flight Track Log - Related Links

Times and Time Zones

All times are in EDT time to prevent confusion due to time zone crossing. See the UAL4788 flight status page for this flight to view local times or setup timezone preferences in your user account.

Time Position Orientation Groundspeed Altitude Reporting Facility
EDT Latitude Longitude Course Direction KTS MPH feet Rate Location/Type
Sat 06:41:37 AM 42.9361 -83.7311 100° East 157 181 2,200  Level Cleveland Center
Sat 06:42:49 AM 42.8961 -83.6667 130° Southeast 181 208 3,900 1,398 Climbing Cleveland Center
Sat 06:43:50 AM 42.8536 -83.6194 141° Southeast 192 221 5,300 1,328 Climbing Cleveland Center
Sat 06:44:51 AM 42.8175 -83.5667 133° Southeast 198 228 6,600 893 Climbing Cleveland Center
Sat 06:45:51 AM 42.7731 -83.5108 137° Southeast 233 268 7,100 261 Climbing Cleveland Center
Sat 06:46:46 AM 42.7308 -83.4494 133° Southeast 244 281 7,100  Level Cleveland Center
Sat 06:47:00 AM 42.6957 -83.4068 100° East  Level Estimated
Sat 06:47:52 AM 42.6767 -83.3678 132° Southeast 251 289 7,100  Level Cleveland Center
Sat 06:48:53 AM 42.6303 -83.3008 133° Southeast 251 289 7,100  Level Cleveland Center
Sat 06:49:54 AM 42.5819 -83.2339 134° Southeast 250 288 7,100  Level Cleveland Center
Sat 06:50:54 AM 42.5314 -83.1642 135° Southeast 247 284 7,100  Level Cleveland Center
Sat 06:51:55 AM 42.4869 -83.0975 132° Southeast 234 269 7,100  Level Cleveland Center
Sat 06:53:01 AM 42.4403 -83.0311 134° Southeast 228 262 7,100  Level Cleveland Center
Sat 06:54:08 AM 42.3919 -82.9589 132° Southeast 226 260 7,100  Level Cleveland Center
Sat 06:55:44 AM 42.3228 -82.8664 135° Southeast 236 272 7,100  Level Cleveland Center
Sat 06:56:44 AM 42.2803 -82.8058 133° Southeast 236 272 7,100 -50 Level Cleveland Center
Sat 06:57:44 AM 42.2356 -82.7425 134° Southeast 231 266 7,000 -50 Descending Cleveland Center
Sat 06:58:44 AM 42.1908 -82.6822 135° Southeast 226 260 7,000  Level Cleveland Center
Sat 06:59:44 AM 42.1483 -82.6192 132° Southeast 226 260 7,000  Level Cleveland Center
Sat 07:00:44 AM 42.1033 -82.5589 135° Southeast 226 260 7,000  Level Cleveland Center
Sat 07:01:44 AM 42.0608 -82.4961 132° Southeast 226 260 7,000  Level Cleveland Center
Sat 07:02:44 AM 42.0158 -82.4361 135° Southeast 226 260 7,000  Level Cleveland Center
Sat 07:03:44 AM 41.9750 -82.3789 134° Southeast 221 254 7,000  Level Cleveland Center
Sat 07:04:44 AM 41.9342 -82.3250 136° Southeast 216 249 7,000  Level Cleveland Center
Sat 07:05:29 AM 41.9036 -82.2822 134° Southeast 200 230 7,000  Level Cleveland Center
Sat 07:06:30 AM 41.8628 -82.2253 134° Southeast 204 235 7,000  Level Cleveland Center
Sat 07:07:30 AM 41.8197 -82.1769 140° Southeast 204 235 7,000  Level Cleveland Center
Sat 07:08:31 AM 41.7744 -82.1339 145° Southeast 197 227 7,000  Level Cleveland Center
Sat 07:09:32 AM 41.7269 -82.0883 144° Southeast 201 231 7,000  Level Cleveland Center
Sat 07:10:32 AM 41.6817 -82.0483 147° Southeast 200 230 7,000  Level Cleveland Center
Sat 07:11:44 AM 41.6281 -81.9944 143° Southeast 194 223 7,000  Level Cleveland Center
Sat 07:12:34 AM 41.6122 -81.9328 109° East 217 250 7,000 -100 Level Cleveland Center
Sat 07:13:44 AM 41.5925 -81.8408 106° East 207 238 6,800 -545 Descending Cleveland Center
Sat 07:14:35 AM 41.6017 -81.7689 80° East 243 280 5,900 -1,243 Descending Cleveland Center
Sat 07:15:35 AM 41.5625 -81.7125 133° Southeast 207 238 4,500 -1,438 Descending Cleveland Center
Sat 07:16:36 AM 41.5167 -81.7036 172° South 182 209 3,000 -984 Descending Cleveland Center
Sat 07:17:37 AM 41.4744 -81.7525 221° Southwest 193 222 2,500 -614 Descending Cleveland Center
Sat 07:18:43 AM 41.4450 -81.7992 230° Southwest 142 163 1,700 -661 Descending Cleveland Center
Sat 07:19:44 AM 41.4217 -81.8347 229° Southwest 115 132 1,100 -590 Descending Cleveland Center
Sat 07:21:00 AM 41.4000 -81.8500 143° Southeast  Level FlightAware Approximate

Login

Don't have an account? Register now (free) for customized features, flight alerts, and more!